Back to catalog

DMSP 5D-2 F13 DEB

AliveSSO
NORAD 42300·DEBRIS·🇺🇸 United States

Launched Mar 24, 1995 from Vandenberg Space Force Base

Loading…

Next Passes (next 24 hours)

TLE

FreshSource: Space-Track

Epoch: Sep 14, 2026, 14:01 UTC

1 42300U 95015HS  26257.58448558  .00003247  00000-0  90918-3 0  9994
2 42300  98.5900 303.8581 0023579  21.4992 338.7185 14.46621262514057

Track DMSP 5D-2 F13 DEB in real time with AllMySat

Download on the App Store